Temp
10 10 10 9 9 9 9 10 10 11 11 10 10 10 10 10 10 10 10 9 8 9 9 9 9 9 9 9 9 9 9 9 9 9 9 8 8 9 8 8 8 8 8 8 8 9 8 9 8
10 10 10 9 9 9 10 11 10 10 11 10 10 9 9 10 10 11 10 9 8 9 9 9 9 9 9 9 9 9 9 9 9 9 9 8 8 8 8 8 8 8 8 8 8 8 8 8 8
10 10 9 10 10 10 10 10 10 10 10 10 10 10 10 10 10 11 10 9 9 9 9 9 8 9 8 8 8 8 9 9 9 8 8 8 9 8 8 8 8 8 8 9 8 8 8 8 8
10 9 9 10 10 10 10 11 11 10 11 11 11 10 10 10 11 10 10 9 9 9 9 9 9 9 8 8 8 8 8 8 9 8 8 9 9 8 8 8 8 8 9 8 8 8 8 8 8
10 9 10 10 9 10 11 11 11 11 11 11 11 11 11 11 11 10 10 9 9 9 9 9 8 9 8 8 8 8 9 8 8 9 9 8 8 8 8 8 8 9 8 8 8 8 8 8 8
10 10 10 10 10 11 11 12 11 11 11 11 11 11 11 11 11 10 9 9 8 9 9 9 9 9 8 8 8 8 8 8 9 9 8 8 8 8 8 8 8 8 9 8 8 8 8 8 7
11 10 10 10 10 11 11 12 11 11 11 11 12 12 12 11 10 10 10 9 8 8 9 9 9 8 8 8 8 8 8 8 8 8 8 8 8 8 8 8 8 8 9 8 8 8 7 8 8
10 10 11 11 11 11 12 12 11 11 11 12 12 11 13 12 10 10 9 9 9 8 8 9 9 8 8 8 8 8 8 8 8 8 8 8 8 8 8 8 8 8 7 8 8 8 7 8 7
10 10 11 12 11 11 12 12 12 12 12 12 12 12 12 12 11 10 10 9 9 9 9 9 9 9 8 8 8 8 8 8 8 8 8 8 8 8 8 8 8 8 7 7 7 7 7 7 7
11 12 12 12 11 12 13 12 12 12 12 12 12 12 11 12 12 11 10 10 9 9 9 9 9 9 8 8 8 8 8 8 8 8 8 8 8 8 8 7 8 8 7 7 7 7 7 7 7
12 11 11 11 11 12 13 12 12 12 12 12 12 12 12 12 12 11 11 10 10 9 9 9 9 8 8 8 8 8 9 9 8 8 8 8 8 7 8 7 7 8 8 8 7 7 7 6 6
13 12 11 11 11 12 12 12 12 12 11 11 11 11 12 12 12 12 11 10 10 10 10 9 9 8 8 8 8 8 9 8 8 8 8 8 8 7 8 7 8 8 8 8 7 7 6 6 6
13 12 11 11 11 11 12 12 12 12 12 12 12 12 11 11 11 12 11 10 10 10 10 9 9 9 9 8 8 8 9 9 8 8 8 8 8 8 7 7 7 7 7 8 7 6 6 5 5
13 12 11 11 11 11 11 12 12 13 13 12 12 13 12 12 12 12 11 11 10 10 10 9 9 9 9 8 8 8 9 8 9 9 8 8 8 8 8 8 8 8 8 7 7 6 6 5 5
12 13 12 11 12 12 11 12 13 13 13 13 12 13 12 12 11 12 12 11 11 11 10 10 9 9 9 8 8 9 8 8 9 9 9 8 8 8 8 8 8 8 8 7 7 6 6 5 4
12 11 11 12 12 12 11 12 13 13 13 13 13 13 13 12 11 11 11 11 11 11 10 9 9 9 9 9 9 9 9 8 9 9 9 8 8 8 9 8 8 8 7 7 6 6 5 4 5
10 11 12 13 12 12 11 13 13 13 14 13 13 13 13 12 12 11 11 11 11 11 10 10 10 10 9 9 9 9 9 9 9 9 9 9 9 9 8 8 8 8 7 7 6 7 5 5 4
9 11 12 13 13 12 12 13 13 13 14 14 13 14 13 13 12 12 11 11 10 10 10 10 10 10 10 9 9 9 9 9 9 9 10 10 10 9 9 8 8 8 7 7 7 7 6 6 5
9 10 12 13 13 12 13 12 13 13 14 14 13 13 14 14 12 12 11 10 10 10 10 10 10 10 10 10 9 10 9 9 9 9 10 10 10 10 9 8 8 7 8 7 7 7 7 6 6
9 9 10 12 12 12 12 13 13 13 14 14 14 14 14 14 13 12 12 11 11 11 10 10 10 10 10 10 10 10 9 9 9 9 9 10 10 10 10 9 9 8 8 8 8 8 7 7 7
8 9 11 11 11 12 12 12 13 13 13 13 13 13 14 14 13 13 12 12 11 11 11 11 10 10 11 10 10 10 9 9 10 10 10 10 10 10 10 9 9 9 8 8 9 8 8 7 7
8 10 10 11 10 11 12 12 13 13 14 14 13 13 14 14 13 13 13 13 13 12 12 12 12 11 11 10 10 10 10 10 10 10 10 10 10 10 10 10 9 9 9 9 9 9 9 8 7
10 9 10 10 9 10 11 11 13 14 14 15 15 14 13 14 13 13 14 14 13 12 12 12 12 11 11 11 11 10 10 10 10 10 10 10 10 10 10 10 9 9 9 9 9 9 9 9 9
9 9 9 9 9 8 10 11 12 14 15 15 15 14 14 14 14 13 14 13 13 12 12 12 12 12 11 11 11 11 10 10 10 10 10 10 10 10 10 10 10 10 10 9 10 10 10 10 10
7 7 7 6 7 8 11 10 11 14 15 15 15 16 15 14 14 14 13 14 14 13 12 12 12 11 11 11 11 11 11 10 10 10 10 10 10 11 10 10 10 10 10 10 10 10 10 10 10
7 8 8 4 5 9 11 10 11 13 14 15 16 16 15 15 14 14 14 14 14 13 13 12 12 12 12 12 12 12 11 11 11 10 10 10 11 10 10 10 10 10 10 10 10 10 11 11 11
7 7 8 9 9 8 11 11 12 13 14 15 16 15 15 15 15 15 14 14 14 14 13 14 13 12 12 12 12 12 12 11 11 11 10 11 11 10 10 10 11 10 10 11 11 11 11 11 11
7 8 8 9 7 6 9 11 12 13 13 15 15 16 16 16 16 15 15 15 15 14 14 13 13 13 13 12 12 12 12 12 11 11 11 11 11 11 10 11 11 11 11 11 11 11 11 11 11
7 8 8 9 9 8 6 10 13 13 14 15 16 16 16 16 17 17 16 15 15 14 14 14 13 13 13 12 12 12 12 12 12 12 11 11 11 11 11 11 11 11 11 11 11 11 11 11 11
7 8 9 9 8 9 9 11 13 14 14 15 16 16 17 17 17 17 17 16 16 15 15 14 14 13 13 13 12 12 12 12 12 12 12 11 11 11 11 11 11 11 11 11 11 11 11 11 11
Height
3147 3147 3147 3148 3152 3148 3147 3149 3150 3150 3148 3152 3155 3157 3160 3160 3161 3166 3163 3168 3172 3175 3177 3180 3183 3186 3188 3190 3192 3194 3196 3197 3198 3200 3201 3202 3203 3204 3205 3205 3205 3205 3205 3206 3206 3206 3205 3205 3205
3147 3147 3148 3147 3145 3147 3148 3148 3149 3151 3152 3154 3155 3157 3159 3161 3162 3163 3164 3168 3174 3177 3179 3182 3184 3187 3189 3192 3194 3196 3197 3199 3200 3202 3202 3204 3205 3206 3206 3207 3207 3207 3208 3208 3207 3207 3207 3207 3206
3147 3147 3146 3140 3147 3145 3146 3146 3149 3151 3153 3154 3155 3157 3159 3160 3162 3163 3167 3169 3175 3179 3182 3184 3187 3189 3191 3193 3195 3198 3199 3201 3202 3204 3205 3206 3207 3207 3209 3210 3210 3210 3210 3210 3209 3208 3208 3208 3208
3147 3148 3148 3144 3147 3147 3147 3149 3150 3151 3153 3153 3155 3158 3159 3160 3162 3164 3168 3171 3176 3180 3183 3187 3189 3191 3193 3195 3198 3200 3202 3203 3205 3207 3208 3208 3209 3211 3211 3212 3212 3212 3212 3211 3210 3210 3210 3210 3210
3147 3147 3146 3146 3146 3147 3147 3148 3150 3151 3153 3153 3155 3157 3158 3160 3163 3166 3170 3174 3178 3182 3185 3189 3191 3193 3196 3198 3200 3202 3204 3205 3207 3209 3210 3210 3212 3213 3213 3213 3213 3213 3213 3212 3212 3212 3213 3213 3213
3146 3147 3146 3146 3147 3146 3147 3148 3149 3151 3153 3154 3155 3156 3157 3159 3163 3168 3172 3176 3180 3185 3187 3191 3193 3195 3198 3200 3203 3205 3206 3208 3209 3211 3212 3213 3214 3215 3215 3215 3214 3214 3213 3213 3214 3213 3214 3215 3215
3145 3146 3146 3146 3146 3147 3148 3149 3150 3152 3153 3155 3154 3154 3156 3158 3164 3169 3173 3177 3182 3187 3190 3193 3194 3197 3199 3202 3204 3206 3208 3210 3211 3213 3214 3216 3215 3216 3217 3217 3216 3215 3215 3215 3215 3216 3216 3217 3218
3145 3146 3145 3146 3146 3147 3147 3150 3148 3152 3154 3153 3153 3154 3155 3158 3163 3169 3174 3178 3183 3188 3191 3194 3196 3198 3201 3204 3205 3208 3210 3212 3213 3215 3216 3218 3218 3219 3219 3219 3218 3217 3218 3218 3219 3218 3219 3219 3219
3145 3146 3145 3146 3146 3148 3148 3150 3151 3153 3153 3152 3153 3155 3160 3161 3164 3169 3173 3178 3182 3187 3192 3195 3197 3199 3202 3204 3207 3210 3212 3213 3215 3217 3218 3220 3220 3220 3221 3221 3221 3220 3220 3221 3221 3221 3222 3222 3222
3143 3145 3145 3146 3144 3146 3148 3151 3153 3153 3153 3154 3155 3158 3161 3163 3165 3169 3173 3177 3182 3186 3191 3195 3198 3201 3204 3206 3209 3211 3213 3215 3217 3218 3220 3222 3222 3222 3222 3223 3222 3222 3222 3222 3223 3223 3224 3224 3225
3143 3144 3144 3147 3146 3147 3150 3153 3151 3153 3154 3155 3157 3158 3160 3164 3167 3171 3175 3179 3184 3188 3192 3195 3198 3202 3205 3208 3210 3212 3215 3217 3219 3220 3222 3223 3224 3224 3224 3225 3225 3224 3224 3224 3225 3225 3225 3225 3226
3143 3144 3145 3147 3148 3150 3152 3152 3153 3155 3155 3155 3156 3158 3161 3163 3168 3171 3176 3180 3184 3188 3193 3196 3199 3203 3206 3209 3211 3214 3216 3219 3220 3222 3224 3225 3226 3226 3226 3226 3226 3226 3225 3225 3226 3226 3227 3226 3226
3141 3144 3146 3146 3147 3148 3150 3151 3152 3153 3154 3156 3156 3158 3160 3165 3169 3174 3178 3181 3185 3189 3193 3197 3200 3203 3207 3210 3212 3215 3217 3220 3222 3224 3226 3226 3227 3227 3228 3229 3229 3228 3227 3227 3226 3227 3227 3227 3226
3137 3142 3144 3144 3146 3147 3147 3148 3150 3152 3153 3155 3157 3158 3159 3165 3170 3173 3176 3180 3185 3189 3193 3197 3200 3204 3208 3211 3213 3216 3218 3220 3223 3225 3227 3228 3228 3228 3229 3230 3230 3230 3229 3229 3229 3228 3228 3227 3227
3136 3139 3140 3143 3145 3145 3145 3145 3147 3150 3151 3154 3156 3157 3159 3164 3168 3173 3178 3181 3186 3190 3193 3197 3201 3204 3208 3211 3214 3217 3219 3221 3224 3226 3228 3229 3229 3229 3230 3230 3231 3231 3230 3230 3230 3229 3229 3228 3229
3132 3135 3136 3140 3144 3145 3146 3144 3145 3149 3151 3153 3154 3157 3159 3163 3167 3173 3177 3181 3185 3189 3192 3197 3200 3204 3208 3211 3214 3217 3220 3222 3224 3226 3229 3230 3230 3230 3231 3231 3232 3233 3232 3231 3231 3230 3230 3230 3231
3126 3129 3133 3138 3142 3143 3144 3143 3145 3147 3150 3152 3155 3156 3158 3161 3165 3170 3175 3179 3184 3188 3192 3195 3199 3203 3207 3211 3214 3217 3220 3222 3224 3227 3229 3230 3230 3231 3232 3232 3233 3234 3234 3233 3233 3232 3231 3232 3232
3124 3126 3129 3133 3140 3141 3142 3142 3144 3147 3149 3151 3154 3155 3155 3158 3163 3168 3173 3178 3182 3187 3191 3194 3199 3203 3206 3209 3212 3216 3219 3221 3224 3227 3229 3231 3231 3231 3233 3233 3234 3235 3234 3234 3234 3234 3233 3233 3233
3122 3125 3129 3133 3137 3139 3140 3141 3142 3145 3147 3148 3151 3152 3153 3157 3163 3166 3171 3175 3179 3183 3187 3191 3196 3200 3203 3207 3210 3214 3218 3221 3224 3226 3228 3230 3231 3232 3233 3233 3234 3235 3235 3235 3235 3235 3235 3235 3235
3118 3121 3124 3130 3133 3136 3138 3137 3140 3140 3142 3145 3148 3150 3153 3156 3158 3162 3167 3170 3174 3179 3184 3187 3193 3198 3202 3206 3210 3213 3217 3220 3222 3225 3227 3229 3231 3233 3233 3234 3234 3235 3236 3236 3236 3236 3236 3236 3237
3112 3115 3121 3127 3131 3133 3135 3134 3135 3135 3136 3139 3143 3148 3152 3154 3157 3159 3162 3166 3170 3174 3179 3184 3189 3195 3199 3204 3207 3211 3213 3217 3220 3223 3226 3228 3230 3233 3233 3234 3235 3236 3237 3236 3237 3237 3237 3237 3239
3106 3113 3119 3123 3127 3128 3131 3126 3127 3129 3131 3132 3136 3143 3146 3150 3154 3157 3160 3162 3165 3170 3176 3181 3186 3191 3197 3201 3204 3208 3212 3216 3220 3222 3224 3227 3229 3231 3233 3234 3235 3236 3237 3237 3238 3239 3239 3238 3240
3102 3110 3116 3121 3123 3125 3123 3126 3118 3121 3122 3126 3131 3136 3141 3146 3150 3154 3157 3161 3165 3168 3173 3178 3183 3188 3193 3198 3202 3206 3209 3213 3217 3220 3222 3225 3227 3229 3232 3234 3235 3236 3237 3238 3238 3239 3240 3241 3241
3103 3109 3112 3118 3120 3113 3113 3120 3112 3111 3116 3123 3128 3132 3136 3141 3146 3151 3155 3158 3162 3167 3171 3175 3180 3184 3189 3194 3199 3203 3207 3210 3214 3217 3220 3223 3226 3229 3231 3233 3234 3236 3237 3237 3238 3240 3241 3243 3244
3098 3106 3110 3115 3111 3094 3104 3108 3103 3109 3114 3119 3124 3128 3131 3136 3142 3147 3149 3153 3158 3162 3167 3171 3176 3181 3186 3190 3195 3200 3203 3207 3211 3215 3218 3221 3224 3227 3230 3232 3233 3235 3236 3237 3238 3240 3243 3244 3244
3088 3094 3094 3103 3100 3095 3101 3089 3092 3102 3110 3116 3119 3123 3128 3131 3136 3141 3146 3150 3155 3159 3164 3168 3172 3178 3182 3187 3191 3197 3200 3203 3208 3211 3215 3219 3222 3225 3227 3229 3231 3232 3234 3236 3238 3240 3242 3244 3245
3084 3082 3091 3092 3091 3091 3087 3087 3095 3098 3104 3109 3114 3117 3121 3125 3129 3135 3141 3145 3151 3155 3159 3164 3169 3175 3179 3183 3188 3192 3196 3200 3204 3209 3212 3216 3219 3222 3225 3227 3229 3231 3232 3235 3236 3238 3241 3243 3245
3074 3080 3086 3084 3085 3087 3076 3078 3083 3090 3097 3103 3108 3110 3116 3120 3124 3130 3134 3139 3146 3150 3155 3160 3165 3170 3176 3180 3183 3188 3192 3197 3201 3205 3208 3212 3216 3219 3222 3225 3228 3229 3231 3233 3235 3237 3239 3242 3244
3066 3068 3070 3075 3075 3071 3079 3073 3078 3086 3094 3099 3104 3108 3112 3116 3119 3125 3130 3133 3140 3146 3150 3154 3160 3165 3168 3174 3178 3183 3188 3192 3197 3201 3205 3208 3212 3216 3219 3222 3225 3227 3228 3230 3232 3234 3236 3239 3242
3054 3058 3062 3063 3064 3066 3071 3071 3076 3083 3089 3094 3100 3104 3109 3111 3114 3120 3126 3129 3134 3139 3144 3149 3154 3159 3164 3170 3174 3178 3183 3187 3191 3196 3201 3204 3209 3213 3216 3219 3221 3223 3225 3228 3229 3231 3233 3236 3239
Wind_Speed
3 2 6 7 4 4 4 4 5 10 15 12 10 17 6 8 4 2 21 26 30 26 26 25 22 19 16 14 14 16 17 16 14 13 13 12 12 11 10 10 8 8 7 7 5 6 6 8 8
2 4 3 8 3 3 2 7 7 9 18 14 13 17 4 9 8 3 28 30 28 26 25 23 20 16 14 14 15 16 15 14 13 13 12 13 13 11 10 10 8 6 7 6 5 6 8 10 11
5 5 3 7 2 1 2 4 12 14 12 13 15 14 5 4 9 7 29 28 30 26 24 21 19 15 13 13 15 16 15 13 13 13 12 13 13 11 11 10 8 7 7 6 6 9 10 12 13
2 4 5 3 2 1 2 8 12 14 12 13 13 10 11 4 9 20 29 29 30 26 24 21 17 15 14 15 14 14 14 13 13 13 14 14 13 12 11 9 7 7 7 8 10 13 13 13 13
2 3 4 4 3 1 5 6 8 9 11 13 15 14 6 8 7 25 28 31 28 27 23 20 17 16 17 16 15 14 14 14 13 13 13 13 13 11 8 7 7 6 8 8 10 8 12 12 12
3 2 3 1 3 2 6 11 8 13 8 6 10 11 11 12 16 27 30 30 27 25 22 18 17 18 18 16 15 15 14 14 13 13 12 11 10 9 8 8 7 9 8 9 10 9 9 12 12
3 4 1 1 4 2 6 11 14 10 5 7 9 9 9 23 27 29 30 29 28 25 20 17 18 18 17 16 15 15 14 14 13 12 11 9 9 9 7 9 13 15 14 14 10 9 11 13 13
7 1 3 1 4 6 10 10 4 8 6 8 8 6 18 25 30 31 31 30 28 25 20 17 19 18 16 16 15 15 15 14 12 10 10 8 9 10 8 10 12 12 14 15 12 10 12 13 13
12 5 4 1 5 3 8 3 7 6 1 7 9 10 15 19 30 30 32 32 28 25 21 18 19 17 17 17 16 14 14 13 12 10 10 9 9 10 10 11 11 12 12 13 13 10 10 13 13
10 7 6 1 6 6 9 3 6 3 2 7 11 10 18 20 26 27 30 30 29 25 22 21 20 18 18 18 16 14 14 12 11 10 11 9 10 10 9 8 9 12 10 8 9 9 10 11 10
9 2 10 13 15 12 18 10 7 4 5 4 2 6 15 20 23 25 26 25 24 23 22 23 22 20 18 17 15 13 12 11 11 11 10 10 11 10 9 9 6 8 9 8 8 9 9 5 6
14 12 15 15 9 9 5 6 6 5 5 8 9 8 10 18 20 23 23 24 24 23 22 23 24 21 19 17 15 13 12 12 11 12 10 10 10 8 8 8 8 6 6 6 5 5 6 5 4
18 18 16 14 11 7 6 4 3 9 12 4 7 10 13 16 20 24 22 24 23 23 24 24 24 22 19 18 15 12 11 12 11 12 9 8 8 8 7 7 6 5 4 4 6 5 2 3 3
19 20 18 17 11 8 7 6 7 10 7 10 6 9 13 15 21 25 24 25 24 24 25 25 24 22 20 18 15 12 10 11 13 11 7 8 7 8 7 6 8 6 5 6 6 7 5 2 3
23 16 25 20 15 9 7 9 9 11 5 9 9 12 16 18 25 24 20 21 23 23 27 26 24 23 21 18 15 13 11 10 12 10 10 6 8 9 6 5 5 8 5 4 8 8 10 9 6
27 27 21 25 17 9 10 12 9 9 11 10 9 14 19 22 24 25 25 22 23 25 28 28 26 23 22 20 16 13 11 11 10 10 10 8 6 7 6 5 8 6 3 3 5 3 9 10 8
21 20 27 25 20 11 12 11 11 11 11 15 14 16 19 22 25 27 27 25 24 24 27 29 28 25 21 21 18 14 11 12 11 11 11 9 7 6 5 5 6 5 3 2 3 3 4 7 6
21 30 26 29 23 17 14 16 7 9 12 15 16 15 17 23 24 25 29 28 27 27 27 29 29 27 24 23 21 17 14 13 13 13 11 10 8 6 5 4 4 4 4 2 1 4 4 5 7
20 22 32 29 28 22 19 19 23 20 16 21 21 17 17 19 22 25 28 31 29 29 30 30 31 30 28 25 22 19 15 13 15 15 12 9 7 6 6 5 4 3 4 3 2 4 6 7 8
36 20 29 30 26 25 19 22 22 25 24 24 19 21 19 20 27 28 30 33 32 31 31 33 32 31 28 26 22 19 16 15 15 17 13 9 7 7 6 5 4 3 2 4 4 5 6 8 10
40 39 30 29 17 25 23 25 24 26 26 29 31 27 24 22 26 28 30 32 34 33 33 33 33 33 30 27 25 22 21 21 20 17 12 9 7 7 6 5 4 4 2 3 4 6 6 8 8
42 43 37 28 17 10 23 12 31 30 27 29 33 33 31 25 26 27 27 30 29 30 31 31 31 33 30 29 27 25 22 20 18 16 14 11 9 9 9 7 6 5 5 5 5 6 8 12 10
42 37 39 38 32 26 18 10 28 32 33 31 30 30 35 31 24 25 20 20 24 28 30 30 32 33 31 29 28 26 24 21 18 16 15 14 12 11 11 11 10 8 7 6 6 8 10 12 12
33 11 21 34 30 23 33 25 27 37 38 33 30 30 34 37 30 22 23 22 21 27 31 31 31 32 33 31 30 29 26 21 19 17 16 14 13 12 11 11 12 11 8 8 8 9 10 11 11
25 29 6 10 12 15 31 27 29 37 38 30 27 27 28 33 36 30 28 27 22 24 31 33 33 34 34 33 32 30 27 24 21 19 16 15 14 12 10 11 12 11 12 12 11 10 11 12 11
39 37 15 8 5 15 27 16 21 42 33 33 23 27 30 31 33 37 31 27 26 23 26 32 34 35 36 34 33 30 28 25 22 21 18 15 14 13 14 13 13 14 15 15 14 13 13 12 11
31 46 40 18 10 9 28 21 25 27 32 38 28 24 26 30 35 32 36 31 30 29 27 32 33 34 35 33 31 31 28 26 25 22 21 18 17 17 16 15 15 16 16 17 17 16 15 15 13
41 31 35 31 9 5 6 28 24 42 30 33 43 33 23 20 30 35 34 33 32 34 30 28 30 32 32 33 32 30 28 27 25 25 24 22 20 20 19 17 16 15 16 18 19 18 18 18 17
46 40 34 40 26 9 1 7 31 33 36 35 35 41 33 25 22 28 34 35 32 35 35 31 28 30 33 32 32 31 30 29 27 26 25 24 24 23 21 19 18 16 16 17 18 20 20 20 19
42 39 41 29 30 34 4 24 7 29 24 21 40 33 30 18 17 28 30 34 35 32 33 32 33 32 29 29 30 31 31 31 30 28 26 26 25 24 23 21 19 17 16 16 16 20 22 21 21
Wind_Direction
214 181 147 171 198 236 219 218 202 173 162 166 161 165 161 173 161 354 160 159 160 158 149 144 138 129 124 123 122 121 120 114 112 115 113 113 109 108 118 115 109 102 100 93 82 66 74 89 94
213 196 178 239 221 214 220 243 206 174 185 183 181 189 193 212 212 304 165 159 161 157 149 144 135 132 130 133 126 124 120 114 114 112 110 111 115 115 118 113 103 99 96 87 65 70 86 93 92
246 246 277 273 155 160 48 149 166 165 167 199 194 196 213 245 214 184 166 161 159 155 148 143 140 137 138 135 129 131 127 124 121 118 117 116 116 119 116 113 113 93 77 68 63 77 90 89 95
240 238 269 291 341 138 107 166 182 187 196 206 199 211 232 237 181 165 166 162 159 155 151 147 145 144 146 139 135 135 134 130 126 122 118 118 119 119 117 112 102 90 82 83 85 89 87 97 97
234 210 284 308 143 182 219 228 210 199 191 199 198 217 236 201 166 167 164 160 160 158 154 152 149 151 146 143 144 143 139 136 130 126 122 119 118 113 109 103 93 80 84 98 104 96 97 101 93
195 224 293 311 212 310 218 212 199 166 179 206 221 234 256 194 162 167 163 161 158 162 158 158 151 150 147 147 146 143 142 138 136 134 131 125 117 114 110 100 78 69 85 104 104 110 109 111 104
216 204 251 274 168 184 180 189 193 182 189 236 240 248 199 162 159 168 166 164 161 165 164 160 153 152 149 148 146 140 139 140 137 134 130 123 120 114 108 91 81 85 88 91 102 104 112 112 114
177 182 204 39 174 202 202 192 179 172 222 253 214 178 167 158 161 169 169 167 166 168 167 160 157 155 153 150 145 143 142 139 137 139 126 118 114 102 91 92 84 82 90 79 82 106 121 117 112
213 258 245 34 188 139 221 171 185 189 229 171 171 157 177 168 163 171 173 171 169 170 168 162 161 157 153 153 146 148 143 142 144 139 125 126 107 98 90 94 83 74 92 75 81 99 122 123 120
222 242 231 46 171 79 120 143 185 186 163 146 154 174 188 184 172 175 177 176 171 170 167 166 161 157 154 152 148 150 146 147 141 136 133 127 114 103 101 98 90 73 88 86 76 85 129 139 130
215 202 168 113 115 116 131 142 158 200 175 177 205 214 199 196 185 180 181 179 172 169 171 166 160 159 158 153 156 157 151 145 138 136 134 128 123 106 97 84 78 82 86 75 93 89 110 133 157
205 159 156 169 144 141 190 224 211 182 180 192 232 249 235 205 200 183 181 178 177 173 171 170 162 163 163 158 160 162 158 152 143 148 136 127 118 116 86 68 94 73 63 59 88 101 97 125 135
220 198 188 184 199 211 239 194 223 206 211 226 231 221 202 208 196 186 180 182 180 177 173 174 167 166 165 165 165 169 170 164 153 148 137 148 125 119 101 88 80 73 57 50 51 78 83 121 130
225 220 213 213 209 235 265 302 229 209 228 252 247 207 170 196 196 188 185 186 184 181 177 177 173 172 170 170 172 174 169 151 155 161 150 151 138 118 88 80 71 82 108 92 74 87 87 112 129
219 204 222 209 195 221 255 252 226 205 260 243 219 190 171 183 195 193 187 188 189 184 183 180 181 178 178 177 181 181 175 156 167 157 151 152 140 120 100 63 54 53 85 77 55 67 71 94 73
226 233 223 203 202 217 227 248 281 230 239 250 229 194 178 183 191 192 191 193 192 192 188 185 188 185 184 184 187 192 188 176 177 180 167 169 150 126 105 88 52 63 85 68 48 79 65 106 116
219 225 223 211 211 221 241 241 253 234 233 234 231 208 187 182 189 191 195 195 197 197 195 191 193 190 190 190 190 198 201 199 193 192 183 180 157 133 124 91 76 55 57 95 67 84 64 91 139
210 217 219 221 214 222 231 227 232 229 254 232 222 221 199 194 186 189 196 200 199 202 200 199 199 197 194 198 197 201 203 209 203 204 192 187 172 158 163 136 85 59 49 81 86 92 106 126 123
211 226 224 217 214 222 227 236 231 247 251 233 227 222 208 207 194 192 194 200 203 203 205 204 203 202 201 204 204 201 201 206 204 213 200 202 187 177 169 133 105 48 62 77 135 118 116 120 126
220 221 228 227 225 224 231 241 242 249 263 245 243 230 210 205 204 200 199 196 204 203 205 206 205 207 206 206 207 203 199 195 194 211 203 201 189 188 170 149 121 83 96 81 109 131 140 104 102
226 222 219 227 226 228 240 246 238 246 251 247 242 235 234 218 211 209 202 203 204 206 204 207 206 207 208 206 205 200 202 200 195 195 196 195 188 180 176 162 154 140 113 90 93 108 127 122 117
233 226 223 225 235 223 222 249 236 243 250 246 243 233 230 222 216 215 212 204 201 203 203 205 202 206 206 206 205 207 206 207 204 193 195 202 201 184 183 184 196 170 152 126 116 112 120 120 122
239 238 232 233 244 253 228 238 243 244 246 240 230 232 227 223 221 220 212 214 204 197 202 199 198 202 205 209 208 209 209 209 207 205 207 210 213 200 196 194 197 193 178 155 150 142 128 117 114
243 226 242 236 244 248 238 228 234 231 235 237 227 232 226 221 224 227 215 210 207 200 200 202 202 203 205 207 210 211 208 206 210 210 214 217 219 212 206 205 197 194 185 181 176 157 143 126 116
230 216 207 216 219 236 239 225 224 230 232 229 222 218 220 228 225 226 216 217 205 206 200 201 205 205 208 206 210 211 207 205 208 214 217 221 218 210 212 206 204 197 194 195 187 173 160 145 138
221 204 191 192 210 235 234 225 224 232 228 231 223 218 232 239 236 231 230 223 216 206 206 205 205 209 210 208 207 209 209 205 207 213 218 218 212 209 215 214 205 202 200 197 192 184 175 167 157
228 216 215 243 248 234 225 233 236 236 232 230 222 233 236 239 244 235 232 234 228 220 210 211 208 209 214 212 211 209 210 208 207 211 217 216 207 211 218 215 210 209 207 204 197 192 185 182 176
227 228 207 217 213 242 229 212 221 228 224 226 228 234 233 238 231 236 232 230 223 221 213 207 212 212 216 213 212 214 212 212 212 213 215 215 214 216 216 212 215 217 215 212 203 198 197 193 190
220 224 216 216 222 222 310 236 225 229 229 224 228 230 239 244 236 226 224 224 221 222 219 209 206 211 213 214 211 214 214 214 214 214 216 218 218 218 217 214 214 218 220 218 212 206 206 202 202
220 222 216 208 213 230 254 239 199 222 218 227 223 226 231 228 219 219 214 228 225 216 212 208 212 210 211 213 215 214 217 216 216 214 215 220 222 221 219 218 214 215 219 219 214 214 214 210 212